W2DEN Weather Reports


Display with metric or nautical units.
time (UTC)temp
F
wind
direction
speed
MPH
gust
MPH
rain 1hr
in
rain 24hr
in
rain mn
in
humidity
%
barometer
mb
20260902180038 93 23 1.0 2.0 0.00 0.00 0.00 50 1017.4
20260902175017 94 45 2.0 3.0 0.00 0.00 0.00 51 1017.5
20260902174039 93 315 2.0 5.0 0.00 0.00 0.00 53 1017.6
20260902173017 93 0 1.0 1.0 0.00 0.00 0.00 54 1017.7
20260902172034 93 23 3.0 3.0 0.00 0.00 0.00 53 1017.7
20260902171539 93 68 2.0 3.0 0.00 0.00 0.00 55 1017.9
20260902170518 92 248 2.0 3.0 0.00 0.00 0.00 58 1017.9
20260902165519 92 0 1.0 2.0 0.00 0.00 0.00 54 1018.0
20260902164519 92 23 1.0 1.0 0.00 0.00 0.00 54 1018.2
20260902163517 92 0 2.0 3.0 0.00 0.00 0.00 56 1018.2
20260902162519 92 0 1.0 2.0 0.00 0.00 0.00 54 1018.4
20260902161518 92 135 2.0 3.0 0.00 0.00 0.00 57 1018.5
20260902160517 91 90 2.0 3.0 0.00 0.00 0.00 59 1018.6
20260902155537 90 225 2.0 3.0 0.00 0.00 0.00 57 1018.6
20260902154517 90 23 2.0 5.0 0.00 0.00 0.00 57 1018.8
20260902153517 90 0.0 2.0 0.00 0.00 0.00 59 1018.8
20260902152517 89 0.0 1.0 0.00 0.00 0.00 64 1018.6
20260902151518 88 0 2.0 2.0 0.00 0.00 0.00 66 1018.7
20260902150518 87 248 1.0 3.0 0.00 0.00 0.00 71 1018.6
20260902145538 87 0.0 2.0 0.00 0.00 0.00 70 1018.6
20260902144519 87 23 2.0 3.0 0.00 0.00 0.00 71 1018.5
20260902143518 86 45 2.0 5.0 0.00 0.00 0.00 72 1018.5
20260902142517 86 0.0 0.0 0.00 0.00 0.00 76 1018.6
20260902141518 85 0.0 0.0 0.00 0.00 0.00 82 1018.5
20260902140519 83 0.0 1.0 0.00 0.00 0.00 85 1018.7
20260902135539 83 23 1.0 1.0 0.00 0.00 0.00 86 1018.8
20260902134518 82 0.0 0.0 0.00 0.00 0.00 88 1018.7
20260902133538 81 0.0 0.0 0.00 0.00 0.00 88 1018.7
20260902132538 81 0.0 1.0 0.00 0.00 0.00 89 1018.9
20260902131518 80 0.0 1.0 0.00 0.00 0.00 92 1018.8
20260902130518 79 23 1.0 2.0 0.00 0.00 0.00 94 1018.9
20260902125518 78 0.0 0.0 0.00 0.00 0.00 96 1018.8
20260902124517 77 0.0 0.0 0.00 0.00 0.00 97 1018.7
20260902123517 76 0.0 0.0 0.00 0.00 0.00 97 1018.8
20260902122518 75 0.0 0.0 0.00 0.00 0.00 97 1018.7
20260902121518 74 0.0 0.0 0.00 0.00 0.00 97 1018.6
20260902120517 73 0.0 0.0 0.00 0.00 0.00 96 1018.5
20260902115518 73 0.0 0.0 0.00 0.00 0.00 96 1018.6
20260902114517 72 0.0 0.0 0.00 0.00 0.00 96 1018.6
20260902113518 72 0.0 0.0 0.00 0.00 0.00 96 1018.5
20260902112517 72 0.0 0.0 0.00 0.00 0.00 96 1018.4
20260902111518 71 0.0 0.0 0.00 0.00 0.00 96 1018.3
20260902110517 71 0.0 0.0 0.00 0.00 0.00 96 1018.0
20260902105517 72 0.0 0.0 0.00 0.00 0.00 96 1018.0
20260902104537 72 0.0 0.0 0.00 0.00 0.00 96 1017.9
20260902103517 72 0.0 0.0 0.00 0.00 0.00 96 1018.0
20260902102518 72 0.0 0.0 0.00 0.00 0.00 96 1018.0
20260902101538 72 0.0 0.0 0.00 0.00 0.00 96 1017.9
20260902100517 72 0.0 0.0 0.00 0.00 0.00 96 1017.6
20260902095517 72 0.0 0.0 0.00 0.00 0.00 96 1017.7
20260902094537 72 0.0 0.0 0.00 0.00 0.00 96 1017.7
20260902093519 72 0.0 0.0 0.00 0.00 0.00 96 1017.7
20260902092517 72 0.0 0.0 0.00 0.00 0.00 96 1017.7
20260902091518 72 0.0 0.0 0.00 0.00 0.00 96 1017.5
20260902090517 72 0.0 0.0 0.00 0.00 0.00 96 1017.4
20260902085518 73 0.0 0.0 0.00 0.00 0.00 96 1017.5
20260902084517 73 0.0 0.0 0.00 0.00 0.00 95 1017.6
20260902083518 73 0.0 0.0 0.00 0.00 0.00 95 1017.5
20260902082517 73 0.0 0.0 0.00 0.00 0.00 96 1017.6
20260902081517 73 0.0 0.0 0.00 0.00 0.00 95 1017.5
20260902080557 73 0.0 0.0 0.00 0.00 0.00 95 1017.3
20260902075517 73 0.0 0.0 0.00 0.00 0.00 95 1017.2
20260902074517 73 0.0 0.0 0.00 0.00 0.00 95 1017.2
20260902073517 73 0.0 0.0 0.00 0.00 0.00 95 1017.2
20260902072537 73 0.0 0.0 0.00 0.00 0.00 95 1017.2
20260902071517 73 0.0 0.0 0.00 0.00 0.00 95 1017.0
20260902070517 74 0.0 0.0 0.00 0.00 0.00 95 1017.0
20260902065518 74 0.0 0.0 0.00 0.00 0.00 95 1017.0
20260902064518 74 0.0 0.0 0.00 0.00 0.00 95 1017.1
20260902063517 74 0.0 0.0 0.00 0.00 0.00 95 1017.0
20260902062517 74 0.0 0.0 0.00 0.00 0.00 95 1017.1
20260902061517 74 0.0 0.0 0.00 0.00 0.00 95 1017.1
20260902060517 74 0.0 0.0 0.00 0.00 0.00 95 1017.2
20260902055517 74 0.0 0.0 0.00 0.00 0.00 95 1017.4
20260902054518 74 0.0 0.0 0.00 0.00 0.00 95 1017.4
20260902053538 75 0.0 0.0 0.00 0.00 0.00 95 1017.3
20260902052517 75 0.0 0.0 0.00 0.00 0.00 95 1017.4
20260902051538 75 0.0 0.0 0.00 0.00 0.00 94 1017.3
20260902050517 75 0.0 0.0 0.00 0.00 0.00 94 1017.3
20260902045517 75 0.0 0.0 0.00 0.00 0.00 94 1017.3
20260902044517 75 0.0 0.0 0.00 0.00 0.00 94 1017.4
20260902043557 75 0.0 0.0 0.00 0.00 0.00 94 1017.5
20260902042517 76 0.0 0.0 0.00 0.00 0.00 94 1017.6
20260902041517 76 0.0 0.0 0.00 0.00 0.00 94 1017.5
20260902040517 76 0.0 0.0 0.00 0.00 0.00 94 1017.6
20260902035518 76 0.0 0.0 0.00 0.00 0.00 94 1017.6
20260902034538 76 0.0 0.0 0.00 0.00 0.00 93 1017.6
20260902033519 76 0.0 0.0 0.00 0.00 0.00 93 1017.6
20260902032538 76 0.0 0.0 0.00 0.00 0.00 93 1017.7
20260902031517 76 0.0 0.0 0.00 0.00 0.00 93 1017.8
20260902030518 76 0.0 0.0 0.00 0.00 0.00 92 1017.8
20260902025517 77 0.0 0.0 0.00 0.00 0.00 92 1017.8
20260902024518 77 0.0 0.0 0.00 0.00 0.00 92 1017.8
20260902023538 77 0.0 0.0 0.00 0.00 0.00 91 1017.9
20260902022517 77 0.0 0.0 0.00 0.00 0.00 90 1017.8
20260902021518 77 0.0 0.0 0.00 0.00 0.00 90 1017.8
20260902020516 78 0.0 0.0 0.00 0.00 0.00 89 1017.8
20260902015516 78 0.0 0.0 0.00 0.00 0.00 89 1017.5
20260902014517 78 0.0 0.0 0.00 0.00 0.00 88 1017.5
20260902013517 79 0.0 0.0 0.00 0.00 0.00 87 1017.5
20260902012517 79 0.0 0.0 0.00 0.00 0.00 85 1017.4
20260902011536 80 0.0 0.0 0.00 0.00 0.00 85 1017.2
20260902010537 80 0.0 0.0 0.00 0.00 0.00 85 1017.0
20260902005517 80 0.0 0.0 0.00 0.00 0.00 84 1016.9
20260902004517 81 0.0 0.0 0.00 0.00 0.00 83 1016.8
20260902003517 81 0.0 0.0 0.00 0.00 0.00 83 1016.8
20260902002516 82 0.0 0.0 0.00 0.00 0.00 82 1016.7
20260902001557 82 0.0 0.0 0.00 0.00 0.00 80 1016.7
20260902000517 83 0.0 0.0 0.00 0.00 0.00 79 1016.7
20260901235516 84 0.0 0.0 0.00 0.00 0.00 77 1016.7
20260901234537 84 0.0 0.0 0.00 0.00 0.00 76 1016.7
20260901233518 85 0.0 0.0 0.00 0.00 0.00 75 1016.7
20260901232516 86 0.0 1.0 0.00 0.00 0.00 74 1016.6
20260901231538 87 0.0 2.0 0.00 0.00 0.00 72 1016.7
20260901230516 88 0.0 1.0 0.00 0.00 0.00 71 1016.6
20260901225528 88 0.0 1.0 0.00 0.00 0.00 66 1016.5
20260901224516 89 0.0 0.0 0.00 0.00 0.00 65 1016.5
20260901223516 90 0.0 0.0 0.00 0.00 0.00 65 1016.5
20260901222516 90 135 1.0 1.0 0.00 0.00 0.00 63 1016.4
20260901221516 91 0.0 1.0 0.00 0.00 0.00 64 1016.5
20260901220516 91 0.0 2.0 0.00 0.00 0.00 62 1016.3
20260901215516 92 23 1.0 1.0 0.00 0.00 0.00 59 1016.4
20260901214657 92 0.0 0.0 0.00 0.00 0.00 59 1016.4
20260901213517 93 248 1.0 2.0 0.00 0.00 0.00 56 1016.3
20260901212516 93 0.0 1.0 0.00 0.00 0.00 55 1016.6
20260901211517 94 158 1.0 2.0 0.00 0.00 0.00 56 1016.6
20260901210516 94 135 1.0 2.0 0.00 0.00 0.00 54 1016.7
20260901205517 94 0.0 1.0 0.00 0.00 0.00 58 1016.6
20260901204516 94 0.0 1.0 0.00 0.00 0.00 56 1016.5
20260901203559 94 23 2.0 3.0 0.00 0.00 0.00 56 1016.6
20260901202518 94 0 1.0 2.0 0.00 0.00 0.00 55 1016.5
20260901201537 93 315 1.0 1.0 0.00 0.00 0.00 56 1016.6
20260901200518 95 0 2.0 2.0 0.00 0.00 0.00 53 1016.6
20260901195518 94 0.0 1.0 0.00 0.00 0.00 56 1016.6
20260901194518 93 135 1.0 2.0 0.00 0.00 0.00 55 1016.7
20260901193516 94 0 2.0 3.0 0.00 0.00 0.00 57 1016.7
20260901192518 94 0.0 1.0 0.00 0.00 0.00 56 1016.7
20260901191537 92 338 1.0 2.0 0.00 0.00 0.00 59 1016.9
20260901190517 93 23 2.0 2.0 0.00 0.00 0.00 55 1017.1
20260901185537 92 0 2.0 3.0 0.00 0.00 0.00 57 1017.4
20260901184516 90 0.0 0.0 0.00 0.00 0.00 63 1017.6
20260901183517 92 0.0 0.0 0.00 0.00 0.00 60 1017.6
20260901182517 94 0.0 0.0 0.00 0.00 0.00 55 1017.7
20260901181619 94 0.0 0.0 0.00 0.00 0.00 59 1017.9
20260901181018 93 0.0 2.0 0.00 0.00 0.00 57 1017.8